Regional Weather Roundup
Issued by NWS

Home | Current Version | Previous Version | Graphics & Text | Print | Product List | Glossary On
Versions: 1 2 3 4 5 6 7 8 9 10 11 12 13 14 15 16 17 18 19 20 21 22 23 24 25 26 27 28 29 30 31 32 33 34 35 36 37 38 39 40 41 42 43 44 45 46 47 48 49 50
000
ASUS43 KIND 270759
RWRIN

WEATHER ROUNDUP FOR INDIANA
NATIONAL WEATHER SERVICE INDIANAPOLIS IN
400 AM EDT SAT AUG 27 2016

NOTE: "FAIR" INDICATES FEW OR NO CLOUDS BELOW 12,000 FEET WITH NO
SIGNIFICANT WEATHER AND/OR OBSTRUCTIONS TO VISIBILITY.

* - STATION DOES NOT REPORT WEATHER SUCH AS PRECIPITATION OR FOG.

+ - STATION NOT QUALITY CONTROLLED BY THE NATIONAL WEATHER SERVICE.
    USE DATA WITH CAUTION...ESPECIALLY DEWPOINT AND RELATIVE
    HUMIDITY OBSERVATIONS.

INZ001>003-010>013-019-020-270900-
NORTHWEST INDIANA

CITY           SKY/WX    TMP DP  RH WIND       PRES   REMARKS
KNOX *+        PTCLDY    68  55  64 N3        30.09S
MONTICELLO +   MOCLDY    72  67  85 CALM      30.08S

$$

LMZ046-743>745-270900-
SOUTHERN LAKE MICHIGAN

STATION/POSITION TIME  TEMP    WIND        PRES    WAVE
                       AIR SEA DIR/SP/G            HT
                 (UTC) (F)     (DEG/KT/KT) (MB)    (FT)
BURNS HARBOR     0704   71      70/  6/  8 1019.6F
MICHIGAN CITY    0700   70      40/  7/  7   N/A
5NW MICH CITY    0700   72 74   70/ 10/ 12   N/A     2

$$

INZ004-005-014>016-021>024-270900-
NORTH CENTRAL INDIANA

CITY           SKY/WX    TMP DP  RH WIND       PRES   REMARKS
GOSHEN         CLOUDY    71  65  81 E3        30.11F
SOUTH BEND     CLOUDY    71  64  78 E5        30.10F

$$

INZ006>009-017-018-025>027-270900-
NORTHEAST INDIANA

CITY           SKY/WX    TMP DP  RH WIND       PRES   REMARKS
ANGOLA *+      PTCLDY    70  63  78 E5        30.13F
FORT WAYNE     CLOUDY    71  64  78 E3        30.12F

$$

INZ028-029-035-036-043>045-051>053-270900-
WEST CENTRAL INDIANA

CITY           SKY/WX    TMP DP  RH WIND       PRES   REMARKS
CRAWFORDSVL +  CLOUDY    67  67 100 CALM      30.08F
LAFAYETTE      PTCLDY    71  70  96 E3        30.06F
TERRE HAUTE    MOCLDY    73  69  87 SW7       30.08S

$$

INZ030>032-037>040-046>048-054>057-064-065-270900-
CENTRAL INDIANA

CITY           SKY/WX    TMP DP  RH WIND       PRES   REMARKS
INDIANAPOLIS   CLOUDY    71  69  93 SE5       30.08F
-EAGLE CREEK   CLOUDY    71  68  90 E3        30.08F
KOKOMO *+      MOCLDY    70  70 100 E3        30.09F
MT COMFORT *+  CLOUDY    70  68  94 SE6       30.09F
SHELBYVILLE    CLOUDY    71  67  87 CALM      30.09S

$$

INZ033-034-041-042-049-050-058-059-270900-
EAST CENTRAL INDIANA

CITY           SKY/WX    TMP DP  RH WIND       PRES   REMARKS
MUNCIE         MOCLDY    71  69  93 E5        30.10F

$$

INZ060-061-067>069-081>083-085>088-270900-
SOUTHWEST INDIANA

CITY           SKY/WX    TMP DP  RH WIND       PRES   REMARKS
EVANSVILLE     CLOUDY    73  71  93 CALM      30.05F
HUNTINGBURG *+ CLOUDY    73  70  88 CALM      30.07F

$$

INZ062-063-066-070>080-084-089>092-270900-
SOUTH CENTRAL AND SOUTHEAST INDIANA

CITY           SKY/WX    TMP DP  RH WIND       PRES   REMARKS
BLOOMINGTON    CLOUDY    74  68  81 SE5       30.08F
MADISON *+     MOCLDY    72  68  88 CALM      30.11F

$$





USA.gov is the U.S. government's official web portal to all federal, state and local government web resources and services.